User: anonymous   Login
Location: Unspecified
(0.0000°N, 0.0000°E)
Time: 17:19:24
(UTC+00:00)
Language:

SPOT 7 - Orbit

View from above orbital plane
View from above orbital plane
View from above satellite
View from above satellite

Ground track
Ground track

The orbit data is extracted from the following two-line orbital elements,

1 40053U 14034A   21337.16160358  .00000019  00000-0  13954-4 0  9996
2 40053  98.1992  42.5691 0001167  78.9923 281.1421 14.58548781395470
Epoch (UTC): 03 December 2021 03:52:42
Eccentricity: 0.0001167
inclination: 98.1992°
perigee height: 697 km
apogee height: 698 km
right ascension of ascending node: 42.5691°
argument of perigee: 78.9923°
revolutions per day: 14.58548781
mean anomaly at epoch: 281.1421°
orbit number at epoch: 39547

The dashed part of the orbit path shows where the satellite is in the earth's shadow,  

DLR